Time,TemperatureF,DewpointF,PressureIn,WindDirection,WindDirectionDegrees,WindSpeedMPH,WindSpeedGustMPH,Humidity,HourlyPrecipIn,Conditions,Clouds,dailyrainin,SoftwareType,DateUTC
2015-07-01 00:07:00,70.2,69.0,29.81,West,260,0.0,0.0,96,0.00,,,0.00,weatherlink.com 1.10,2015-07-01 05:07:00,
2015-07-01 00:22:00,70.2,69.0,29.81,West,260,0.0,1.0,97,0.00,,,0.00,weatherlink.com 1.10,2015-07-01 05:22:00,
2015-07-01 00:37:00,70.2,69.0,29.81,West,260,0.0,0.0,97,0.00,,,0.00,weatherlink.com 1.10,2015-07-01 05:37:00,
2015-07-01 00:52:00,70.3,69.0,29.81,West,260,0.0,1.0,97,0.00,,,0.00,weatherlink.com 1.10,2015-07-01 05:52:00,
2015-07-01 01:07:00,70.2,69.0,29.82,West,260,0.0,1.0,97,0.00,,,0.00,weatherlink.com 1.10,2015-07-01 06:07:00,
2015-07-01 01:22:00,70.6,70.0,29.82,West,261,0.0,0.0,98,0.00,,,0.00,weatherlink.com 1.10,2015-07-01 06:22:00,
2015-07-01 01:38:00,70.8,70.0,29.81,NNW,337,0.0,2.0,97,0.00,,,0.00,weatherlink.com 1.10,2015-07-01 06:38:00,
2015-07-01 01:52:00,70.9,70.0,29.81,NNW,337,0.0,0.0,98,0.00,,,0.00,weatherlink.com 1.10,2015-07-01 06:52:00,
2015-07-01 02:07:00,71.3,71.0,29.81,NNW,337,0.0,0.0,98,0.00,,,0.00,weatherlink.com 1.10,2015-07-01 07:07:00,
2015-07-01 02:22:00,71.5,71.0,29.80,NNE,16,0.0,4.0,98,0.00,,,0.00,weatherlink.com 1.10,2015-07-01 07:22:00,
2015-07-01 02:37:00,71.6,71.0,29.80,NNE,16,0.0,1.0,98,0.00,,,0.00,weatherlink.com 1.10,2015-07-01 07:37:00,
2015-07-01 02:52:00,71.8,71.0,29.80,NNE,16,0.0,2.0,98,0.00,,,0.00,weatherlink.com 1.10,2015-07-01 07:52:00,
2015-07-01 03:07:00,71.9,71.0,29.80,NNE,16,0.0,1.0,98,0.00,,,0.00,weatherlink.com 1.10,2015-07-01 08:07:00,
2015-07-01 03:22:00,71.9,71.0,29.80,NNE,16,0.0,1.0,98,0.00,,,0.00,weatherlink.com 1.10,2015-07-01 08:22:00,
2015-07-01 03:37:00,71.9,71.0,29.79,NNE,16,0.0,1.0,98,0.00,,,0.00,weatherlink.com 1.10,2015-07-01 08:37:00,
2015-07-01 03:52:00,71.7,71.0,29.79,NNE,16,0.0,0.0,98,0.00,,,0.00,weatherlink.com 1.10,2015-07-01 08:52:00,
2015-07-01 04:07:00,71.6,71.0,29.79,NNE,16,0.0,0.0,98,0.00,,,0.00,weatherlink.com 1.10,2015-07-01 09:07:00,
2015-07-01 04:22:00,71.5,71.0,29.79,NNE,16,0.0,1.0,98,0.00,,,0.00,weatherlink.com 1.10,2015-07-01 09:22:00,
2015-07-01 04:37:00,71.6,71.0,29.79,NNE,16,0.0,1.0,98,0.00,,,0.00,weatherlink.com 1.10,2015-07-01 09:37:00,
2015-07-01 04:52:00,71.5,71.0,29.79,NNE,16,0.0,0.0,98,0.00,,,0.00,weatherlink.com 1.10,2015-07-01 09:52:00,
2015-07-01 05:07:00,71.2,71.0,29.79,NNE,16,0.0,0.0,98,0.00,,,0.00,weatherlink.com 1.10,2015-07-01 10:07:00,
2015-07-01 05:22:00,70.8,70.0,29.79,NNE,16,0.0,0.0,98,0.00,,,0.00,weatherlink.com 1.10,2015-07-01 10:22:00,
2015-07-01 05:37:00,70.7,70.0,29.80,NNE,16,0.0,0.0,98,0.00,,,0.00,weatherlink.com 1.10,2015-07-01 10:37:00,
2015-07-01 05:52:00,70.8,70.0,29.80,NNE,16,0.0,1.0,98,0.00,,,0.00,weatherlink.com 1.10,2015-07-01 10:52:00,
2015-07-01 06:07:00,70.8,70.0,29.80,NNE,16,0.0,0.0,98,0.00,,,0.00,weatherlink.com 1.10,2015-07-01 11:07:00,
2015-07-01 06:22:00,71.1,71.0,29.82,NNE,16,0.0,0.0,98,0.00,,,0.00,weatherlink.com 1.10,2015-07-01 11:22:00,
2015-07-01 06:37:00,71.2,71.0,29.81,NNE,16,0.0,0.0,98,0.00,,,0.00,weatherlink.com 1.10,2015-07-01 11:37:00,
2015-07-01 06:52:00,71.2,71.0,29.81,NNE,16,0.0,0.0,98,0.00,,,0.00,weatherlink.com 1.10,2015-07-01 11:52:00,
2015-07-01 07:07:00,71.7,71.0,29.82,NNE,16,0.0,1.0,98,0.00,,,0.00,weatherlink.com 1.10,2015-07-01 12:07:00,
2015-07-01 07:22:00,72.3,72.0,29.82,NNE,16,0.0,0.0,98,0.00,,,0.00,weatherlink.com 1.10,2015-07-01 12:22:00,
2015-07-01 07:37:00,73.0,72.0,29.82,NNE,16,0.0,2.0,98,0.00,,,0.00,weatherlink.com 1.10,2015-07-01 12:37:00,
2015-07-01 07:52:00,73.4,72.0,29.82,ENE,69,1.0,2.0,96,0.00,,,0.00,weatherlink.com 1.10,2015-07-01 12:52:00,
2015-07-01 08:07:00,73.5,72.0,29.82,ENE,69,0.0,1.0,95,0.00,,,0.00,weatherlink.com 1.10,2015-07-01 13:07:00,
2015-07-01 08:23:00,73.7,72.0,29.82,ENE,69,0.0,1.0,95,0.00,,,0.00,weatherlink.com 1.10,2015-07-01 13:23:00,
2015-07-01 08:37:00,73.7,72.0,29.82,ENE,76,0.0,1.0,95,0.00,,,0.00,weatherlink.com 1.10,2015-07-01 13:37:00,
2015-07-01 08:52:00,73.5,72.0,29.83,ENE,76,0.0,0.0,95,0.00,,,0.00,weatherlink.com 1.10,2015-07-01 13:52:00,
2015-07-01 09:07:00,73.4,72.0,29.83,NW,311,0.0,4.0,95,0.00,,,0.00,weatherlink.com 1.10,2015-07-01 14:07:00,
2015-07-01 09:23:00,73.3,72.0,29.84,NW,309,0.0,0.0,95,0.00,,,0.00,weatherlink.com 1.10,2015-07-01 14:23:00,
2015-07-01 09:37:00,73.7,73.0,29.85,NW,309,0.0,0.0,96,0.00,,,0.00,weatherlink.com 1.10,2015-07-01 14:37:00,
2015-07-01 09:52:00,74.2,73.0,29.85,NW,309,0.0,0.0,96,0.01,,,0.01,weatherlink.com 1.10,2015-07-01 14:52:00,
2015-07-01 10:07:00,74.3,73.0,29.84,North,355,0.0,2.0,96,0.01,,,0.01,weatherlink.com 1.10,2015-07-01 15:07:00,
2015-07-01 10:22:00,74.5,73.0,29.85,North,355,0.0,1.0,96,0.01,,,0.01,weatherlink.com 1.10,2015-07-01 15:22:00,
2015-07-01 10:37:00,74.6,73.0,29.84,North,355,0.0,2.0,96,0.01,,,0.01,weatherlink.com 1.10,2015-07-01 15:37:00,
2015-07-01 10:52:00,74.8,74.0,29.85,North,355,0.0,1.0,96,0.00,,,0.01,weatherlink.com 1.10,2015-07-01 15:52:00,
2015-07-01 11:07:00,75.0,74.0,29.85,ENE,78,0.0,2.0,96,0.01,,,0.02,weatherlink.com 1.10,2015-07-01 16:07:00,
2015-07-01 11:22:00,75.5,74.0,29.86,ENE,61,0.0,1.0,96,0.01,,,0.02,weatherlink.com 1.10,2015-07-01 16:22:00,
2015-07-01 11:38:00,75.7,74.0,29.86,East,80,0.0,1.0,95,0.01,,,0.02,weatherlink.com 1.10,2015-07-01 16:38:00,
2015-07-01 11:53:00,75.4,74.0,29.88,East,80,1.0,5.0,94,0.05,,,0.06,weatherlink.com 1.10,2015-07-01 16:53:00,
2015-07-01 12:08:00,72.4,71.0,29.88,WSW,255,0.0,5.0,94,0.37,,,0.39,weatherlink.com 1.10,2015-07-01 17:08:00,
2015-07-01 12:23:00,71.2,70.0,29.88,WSW,255,0.0,0.0,95,0.39,,,0.41,weatherlink.com 1.10,2015-07-01 17:23:00,
2015-07-01 12:38:00,70.5,69.0,29.88,WSW,255,0.0,0.0,96,0.41,,,0.43,weatherlink.com 1.10,2015-07-01 17:38:00,
2015-07-01 12:53:00,70.6,70.0,29.88,WSW,255,0.0,0.0,97,0.36,,,0.44,weatherlink.com 1.10,2015-07-01 17:53:00,
2015-07-01 13:08:00,70.9,70.0,29.86,WSW,255,0.0,0.0,98,0.06,,,0.45,weatherlink.com 1.10,2015-07-01 18:08:00,
2015-07-01 13:23:00,71.1,71.0,29.86,WSW,256,0.0,0.0,98,0.04,,,0.45,weatherlink.com 1.10,2015-07-01 18:23:00,
2015-07-01 13:38:00,71.4,71.0,29.85,WSW,256,0.0,2.0,98,0.02,,,0.45,weatherlink.com 1.10,2015-07-01 18:38:00,
2015-07-01 13:53:00,71.7,71.0,29.83,WSW,255,0.0,1.0,98,0.01,,,0.45,weatherlink.com 1.10,2015-07-01 18:53:00,
2015-07-01 14:08:00,71.4,71.0,29.83,SSE,148,0.0,4.0,98,0.00,,,0.45,weatherlink.com 1.10,2015-07-01 19:08:00,
2015-07-01 14:23:00,71.5,71.0,29.82,ESE,104,0.0,4.0,98,0.00,,,0.45,weatherlink.com 1.10,2015-07-01 19:23:00,
2015-07-01 14:38:00,71.4,71.0,29.81,ENE,69,0.0,6.0,98,0.00,,,0.45,weatherlink.com 1.10,2015-07-01 19:38:00,
2015-07-01 14:53:00,72.6,72.0,29.82,East,79,1.0,4.0,97,0.00,,,0.45,weatherlink.com 1.10,2015-07-01 19:53:00,
2015-07-01 15:08:00,73.9,73.0,29.82,ESE,111,3.0,5.0,96,0.00,,,0.45,weatherlink.com 1.10,2015-07-01 20:08:00,
2015-07-01 15:23:00,74.3,73.0,29.82,East,83,0.0,2.0,95,0.00,,,0.45,weatherlink.com 1.10,2015-07-01 20:23:00,
2015-07-01 15:38:00,75.3,74.0,29.81,NE,40,1.0,5.0,94,0.00,,,0.45,weatherlink.com 1.10,2015-07-01 20:38:00,
2015-07-01 15:53:00,75.7,74.0,29.81,NE,45,0.0,6.0,93,0.00,,,0.45,weatherlink.com 1.10,2015-07-01 20:53:00,
2015-07-01 16:08:00,75.1,73.0,29.81,NE,56,0.0,7.0,92,0.00,,,0.45,weatherlink.com 1.10,2015-07-01 21:08:00,
2015-07-01 16:23:00,74.9,72.0,29.81,NNE,22,5.0,7.0,90,0.00,,,0.45,weatherlink.com 1.10,2015-07-01 21:23:00,
2015-07-01 16:38:00,74.4,71.0,29.81,ESE,109,0.0,5.0,90,0.00,,,0.45,weatherlink.com 1.10,2015-07-01 21:38:00,
2015-07-01 16:53:00,74.5,72.0,29.80,ESE,108,2.0,2.0,91,0.00,,,0.45,weatherlink.com 1.10,2015-07-01 21:53:00,
2015-07-01 17:08:00,74.5,71.0,29.81,South,173,0.0,2.0,89,0.01,,,0.46,weatherlink.com 1.10,2015-07-01 22:08:00,
2015-07-01 17:23:00,73.9,71.0,29.81,NE,44,0.0,4.0,90,0.01,,,0.46,weatherlink.com 1.10,2015-07-01 22:23:00,
2015-07-01 17:38:00,73.1,70.0,29.80,ENE,61,0.0,4.0,91,0.01,,,0.46,weatherlink.com 1.10,2015-07-01 22:38:00,
2015-07-01 17:53:00,73.1,71.0,29.81,East,84,0.0,4.0,92,0.01,,,0.46,weatherlink.com 1.10,2015-07-01 22:53:00,
2015-07-01 18:08:00,72.5,70.0,29.82,East,97,2.0,4.0,91,0.00,,,0.46,weatherlink.com 1.10,2015-07-01 23:08:00,
2015-07-01 18:23:00,72.1,70.0,29.82,East,97,0.0,2.0,93,0.00,,,0.46,weatherlink.com 1.10,2015-07-01 23:23:00,
2015-07-01 18:38:00,72.1,70.0,29.82,ENE,61,0.0,6.0,93,0.00,,,0.46,weatherlink.com 1.10,2015-07-01 23:38:00,
2015-07-01 18:53:00,72.2,70.0,29.83,ENE,64,0.0,2.0,92,0.00,,,0.46,weatherlink.com 1.10,2015-07-01 23:53:00,